Location: Newark
(39.1833°N, 3.3000°W)
Time: 20:42:17
(UTC+00:00)

Envisat - Visible Passes

Search period start: 21 March 2019 00:00
Search period end: 31 March 2019 00:00
Orbit: 764 x 766 km, 98.2° (Epoch: 21 March)

Date Brightness Start Highest point End Pass type
(mag) Time Alt. Az. Time Alt. Az. Time Alt. Az.
21 Mar 3.9 19:15:01 10° S 19:19:57 52° W 19:24:55 10° NNW visible
22 Mar 6.0 20:20:30 10° WSW 20:22:41 13° W 20:24:52 10° WNW visible
23 Mar 5.0 19:41:13 10° SSW 19:45:36 29° W 19:50:00 10° NW visible
24 Mar 3.5 19:03:40 10° S 19:08:43 67° WSW 19:13:47 10° NNW visible
25 Mar 5.8 20:08:12 10° SW 20:11:21 16° W 20:14:30 10° NW visible
26 Mar 4.6 19:29:39 10° SSW 19:34:19 37° W 19:39:02 10° NNW visible
27 Mar 3.1 18:52:24 10° SSE 18:57:29 85° WSW 19:02:36 10° NNW visible
28 Mar 5.6 19:56:15 10° SW 20:00:01 21° W 20:03:50 10° NW visible
29 Mar 4.1 19:18:11 10° S 19:23:04 47° W 19:27:58 10° NNW visible
30 Mar 6.1 20:24:17 10° WSW 20:25:50 11° W 20:27:23 10° WNW visible
